Regional Weather Roundup
Issued by NWS

Home | Current Version | Previous Version | Graphics & Text | Print | Product List | Glossary On
Versions: 1 2 3 4 5 6 7 8 9 10 11 12 13 14 15 16 17 18 19 20 21 22 23 24 25 26 27 28 29 30 31 32 33 34 35 36 37 38 39 40 41 42 43 44 45 46 47 48 49 50
905
ASUS43 KFSD 211502
RWRSD

WEATHER ROUNDUP FOR SOUTH DAKOTA
NATIONAL WEATHER SERVICE SIOUX FALLS SD
1000 AM CDT MON MAY 21 2018

NOTE: "FAIR" INDICATES FEW OR NO CLOUDS BELOW 12,000 FEET WITH NO
SIGNIFICANT WEATHER AND/OR OBSTRUCTIONS TO VISIBILITY.


SDZ001>005-009-010-012>017-211600-
NORTHWEST AND NORTH CENTRAL SOUTH DAKOTA

CITY           SKY/WX    TMP DP  RH WIND       PRES   REMARKS
FAITH            N/A     59  44  57 SE13      30.00F
MOBRIDGE       SUNNY     62  45  53 S7        29.99F
$$

SDZ012>016-024>037-041>051-057-063-072>074-211600-
SOUTHWEST AND SOUTH CENTRAL SOUTH DAKOTA

CITY           SKY/WX    TMP DP  RH WIND       PRES   REMARKS
RAPID CTY ARPT SUNNY     57  48  72 SE13      29.98F
PIERRE         SUNNY     59  42  53 VRB3      30.02S
CUSTER         SUNNY     55  43  63 VRB7      30.03S
ELLSWORTH AFB  SUNNY     57  49  74 S14       29.97F
PHILIP         SUNNY     58  48  69 VRB3      30.01F
PINE RIDGE     SUNNY     62  49  62 S14       30.00F
SPEARFISH      FAIR      59  46  63 CALM      29.98R
WINNER         FAIR      63  47  55 NW3       30.03S
$$

SDZ004>011-016>023-039-040-211600-
NORTHEAST SOUTH DAKOTA

CITY           SKY/WX    TMP DP  RH WIND       PRES   REMARKS
ABERDEEN       CLOUDY    64  51  62 SE9G17    30.03S
WATERTOWN      CLOUDY    57  55  93 SE6       30.03F
BROOKINGS      LGT RAIN  56  54  93 SE7       30.04F FOG
SISSETON         N/A     58  53  84 E9        30.05S
$$

SDZ017-020-022-023-036>040-048>070-211600-
SOUTHEAST SOUTH DAKOTA

CITY           SKY/WX    TMP DP  RH WIND       PRES   REMARKS
SIOUX FALLS    CLOUDY    57  55  93 S3        30.04S
HURON          CLOUDY    56  54  93 S6        30.04R FOG
CHAMBERLAIN    SUNNY     61  50  65 W3        30.04S
MITCHELL       CLOUDY    57  54  89 S3        30.05S
YANKTON        CLOUDY    56  53  90 SW7       30.05S
$$

ABBREVIATIONS USED IN REMARKS
   TC - TEMPERATURE IN CELSIUS
  WCI - WIND CHILL INDEX
   HX - HEAT INDEX
  VSB - VISIBILITY





USA.gov is the U.S. government's official web portal to all federal, state and local government web resources and services.